[[{"header":{"parameterUnit":"m.s-1","parameterCategory":1,"la1":30.2991,"la2":30.254,"lo1":-89.0895,"lo2":-89.0444,"dy":0.0017,"dx":0.0017,"nx":28,"ny":28,"refTime":"2023-08-02T21:00:00:Z","depth":0,"parameterNumber":2,"parameterNumberName":"U-component_of_WINDS"},"data":[0,0,0,0,0,0,0,0,0,0,0,0,0,0,0,0,0,0,0,0,0,0,0,0,0,0,0,0,0,0,0,0,0,0,0,0,0,0,0,0,0,0,0,0,0,0,0,0,0,0,0,0,0,0,0,0,0,0,4.7292,4.7293,0,4.7391,4.7392,4.7393,4.7364,4.7361,4.7359,4.7357,4.7461,4.7466,4.747,0,0,0,0,0,0,0,0,0,0,0,0,0,4.7083,4.7087,4.7292,4.7293,4.7295,4.739,4.7392,4.7393,4.7364,4.7361,4.7359,4.7357,4.746,4.7465,4.7471,0,0,0,0,0,0,0,0,0,0,0,0,0,4.7177,4.7089,4.7292,4.7292,4.7292,4.739,4.7392,4.7393,4.7364,4.7361,4.7358,4.7355,4.7458,4.7465,4.7471,4.7576,0,0,4.7493,4.7496,0,0,0,0,0,0,0,0,4.7172,4.7185,4.729,4.7292,4.7293,4.7362,4.7356,4.7455,4.7365,4.7337,4.7357,4.7354,4.7431,4.744,4.7465,4.7581,4.7586,4.7493,4.7498,4.7501,4.7503,0,0,0,0,0,0,0,4.7165,4.7181,4.7331,4.7292,4.7294,4.7288,4.7298,4.7375,4.74,4.7339,4.7337,4.7349,4.7431,4.7458,4.7467,4.7587,4.7493,4.75,4.7504,4.7507,4.7798,4.7801,0,0,0,0,0,0,4.7158,4.7175,4.7328,4.7334,4.7224,4.7294,4.7305,4.7343,4.7399,4.7405,4.7352,4.7348,4.7448,4.7459,4.7471,4.7599,4.7501,4.7507,4.7511,4.7794,4.7798,4.7802,0,0,0,0,0,0,4.7153,4.7171,4.7324,4.7254,4.7273,4.7301,4.7343,4.7346,4.7374,4.7409,4.7413,4.7375,4.7446,4.7461,4.7551,4.7602,4.751,4.7517,4.779,4.7795,4.78,4.7856,0,0,0,0,0,0,4.7147,4.717,4.7209,4.7255,4.7277,4.7401,4.7346,4.735,4.7386,4.7381,4.7432,4.7437,4.7445,4.7541,4.7558,4.761,4.7522,4.7786,4.7792,4.7799,4.785,4.7863,4.7874,0,0,0,0,0,4.714,4.7221,4.7211,4.723,4.7326,4.7404,4.7417,4.7423,4.739,4.743,4.7453,4.7435,4.7594,4.755,4.7569,4.7625,4.7782,4.7791,4.7798,4.7845,4.786,4.7873,0,0,0,0,0,0,4.718,4.7227,4.7217,4.7314,4.7356,4.7399,4.745,4.7439,4.7491,4.7485,4.7491,4.7503,4.7596,4.7619,4.7569,4.7731,4.7683,4.7696,4.7712,4.7727,4.7739,4.7732,4.7528,0,0,0,0,0,4.72,4.7259,4.7297,4.738,4.7401,4.7422,4.7456,4.7458,4.7501,4.7518,4.7547,4.7591,4.7651,4.769,4.7747,4.7853,4.7865,4.7901,4.7913,4.7922,4.7933,4.7994,4.8011,4.7828,4.7828,4.7828,0,0,4.7243,4.7276,4.7312,4.7389,4.7421,4.7483,4.7437,4.7504,4.755,4.7529,4.7616,4.7639,4.7688,4.7787,4.7832,4.781,4.7986,4.7933,4.794,4.7946,4.8004,4.8021,4.8036,4.7834,4.7833,4.7832,0,0,4.7352,4.7382,4.7456,4.7489,4.7538,4.7552,4.757,4.7615,4.763,4.7717,4.7703,4.7759,4.7861,4.7898,4.793,4.8056,4.8042,4.8074,4.8137,4.8196,4.821,4.8223,4.827,4.8286,4.8084,4.8085,4.8085,0,4.7399,4.7491,4.7495,4.7564,4.7599,4.7582,4.7658,4.769,4.7756,4.7781,4.7754,4.7884,4.7916,4.8024,4.8055,4.8081,4.8103,4.8068,4.8207,4.822,4.8232,4.8277,4.8295,4.8088,4.8088,4.8087,4.8087,0,4.7548,4.7612,4.7665,4.7729,4.777,4.7842,4.7859,4.79,4.7898,4.7916,4.8006,4.8044,4.8109,4.8135,4.8134,4.8245,4.8229,4.8205,4.8158,4.8253,4.8296,4.8313,4.8093,4.8092,4.8091,4.809,0,0,4.7685,4.7751,4.7771,4.78,4.7854,4.7905,4.7977,4.804,4.8077,4.8123,4.8185,4.8273,4.8251,4.8288,4.8291,4.8342,4.8443,4.8312,4.8313,4.8337,4.857,4.8589,4.8608,4.8434,4.8437,4.844,4.8566,0,4.7801,4.7927,4.7933,4.8049,4.8109,4.8095,4.8158,4.8199,4.8218,4.8273,4.8294,4.8357,4.8322,4.8345,4.8395,4.842,4.849,4.841,4.8494,4.8497,4.8483,4.863,4.865,4.8768,4.8583,4.8585,4.8587,0,4.7952,4.8003,4.8124,4.8172,4.8197,4.8254,4.8314,4.8366,4.8413,4.8423,4.8465,4.8461,4.8537,4.8487,4.8593,4.854,4.8574,4.8592,4.8596,4.8606,4.8549,4.8645,4.8805,4.8823,4.8613,4.8611,4.8609,0,4.8043,4.8142,4.8228,4.8253,4.831,4.8351,4.8376,4.842,4.8458,4.8511,4.8537,4.8598,4.8632,4.868,4.8694,4.8655,4.8801,4.8751,4.8813,4.8813,4.8845,4.8844,4.9015,4.8865,4.8865,4.8865,4.8864,0,4.8172,4.8248,4.827,4.8323,4.8407,4.8415,4.8499,4.8522,4.8562,4.8621,4.8612,4.8667,4.8681,4.874,4.8752,4.884,4.8855,4.8866,4.8869,4.8868,4.8867,4.8892,4.8885,4.8869,4.8868,4.8867,4.8867,0,4.8288,4.8306,4.8399,4.8445,4.8459,4.8519,4.856,4.8612,4.8629,4.8704,4.8722,4.8751,4.882,4.8838,4.892,4.8928,4.9032,4.9026,4.9017,4.9017,4.9079,4.9074,4.9274,4.9301,4.9132,4.9133,4.9135,0,4.837,4.8428,4.8481,4.8519,4.8547,4.8608,4.8648,4.8658,4.87,4.8759,4.8805,4.8872,4.8927,4.9039,4.9068,4.9131,4.9128,4.9194,4.9138,4.9136,4.9132,4.9129,4.9135,4.9205,4.9207,4.9208,4.9209,0,4.8515,4.8521,4.8578,4.8638,4.8685,4.8734,4.878,4.8812,4.8829,4.8877,4.8947,4.899,4.9074,4.9143,4.9208,4.9236,4.9227,4.9227,4.9245,4.9245,4.9238,4.9245,4.9047,4.9222,4.9221,4.922,4.9219,4.9219,4.8618,4.867,4.8715,4.8779,4.8815,4.8859,4.8911,4.8935,4.8994,4.9063,4.9066,4.9143,4.9191,4.9277,4.9308,4.937,4.9351,4.9376,4.9383,4.939,4.9396,4.9227,4.9382,4.9381,4.9381,4.9381,4.9381,0,4.8765,4.8793,4.8852,4.8917,4.8968,4.8953,4.9004,4.9049,4.9116,4.9161,4.9215,4.9297,4.9364,4.9399,4.9465,4.9508,4.9506,4.9526,4.9524,4.9531,4.9409,4.9387,4.9527,4.9527,4.9527,4.9527,4.9527,4.9527,4.8847,4.8934,4.8946,4.9051,4.908,4.9155,4.9185,4.9227,4.9263,4.9354,4.941,4.9431,4.9473,4.9543,4.9604,4.9613,4.9639,4.9661,4.9668,4.9554,4.9539,4.9525,4.9505,4.9666,4.9667,4.9785,4.9786,4.9787]},{"header":{"parameterUnit":"m.s-1","parameterCategory":1,"la1":30.2991,"la2":30.254,"lo1":-89.0895,"lo2":-89.0444,"dy":0.0017,"dx":0.0017,"nx":28,"ny":28,"refTime":"2023-08-02T21:00:00:Z","depth":0,"parameterNumber":3,"parameterNumberName":"V-component_of_WINDS"},"data":[0,0,0,0,0,0,0,0,0,0,0,0,0,0,0,0,0,0,0,0,0,0,0,0,0,0,0,0,0,0,0,0,0,0,0,0,0,0,0,0,0,0,0,0,0,0,0,0,0,0,0,0,0,0,0,0,0,0,-0.2778,-0.2778,0,-0.2774,-0.2774,-0.2774,-0.2774,-0.2774,-0.2775,-0.2775,-0.277,-0.277,-0.277,0,0,0,0,0,0,0,0,0,0,0,0,0,-0.2787,-0.2787,-0.2778,-0.2778,-0.2778,-0.2774,-0.2774,-0.2774,-0.2774,-0.2774,-0.2775,-0.2775,-0.277,-0.277,-0.277,0,0,0,0,0,0,0,0,0,0,0,0,0,-0.2783,-0.2787,-0.2778,-0.2778,-0.2778,-0.2774,-0.2774,-0.2774,-0.2774,-0.2774,-0.2775,-0.2775,-0.277,-0.277,-0.277,-0.2766,0,0,-0.2769,-0.2769,0,0,0,0,0,0,0,0,-0.2783,-0.2783,-0.2778,-0.2778,-0.2778,-0.2775,-0.2775,-0.2771,-0.2774,-0.2776,-0.2775,-0.2775,-0.2772,-0.2771,-0.277,-0.2766,-0.2765,-0.2769,-0.2769,-0.2769,-0.2768,0,0,0,0,0,0,0,-0.2784,-0.2783,-0.2776,-0.2778,-0.2778,-0.2778,-0.2778,-0.2775,-0.2773,-0.2775,-0.2776,-0.2775,-0.2772,-0.277,-0.277,-0.2765,-0.2769,-0.2769,-0.2768,-0.2768,-0.2759,-0.2758,0,0,0,0,0,0,-0.2784,-0.2783,-0.2776,-0.2776,-0.2781,-0.2778,-0.2777,-0.2776,-0.2773,-0.2773,-0.2775,-0.2775,-0.2771,-0.277,-0.277,-0.2766,-0.2769,-0.2768,-0.2768,-0.2759,-0.2759,-0.2758,0,0,0,0,0,0,-0.2784,-0.2783,-0.2777,-0.278,-0.2779,-0.2778,-0.2776,-0.2775,-0.2774,-0.2773,-0.2772,-0.2774,-0.2771,-0.277,-0.2767,-0.2766,-0.2768,-0.2768,-0.2759,-0.2759,-0.2759,-0.2757,0,0,0,0,0,0,-0.2784,-0.2783,-0.2782,-0.278,-0.2779,-0.2774,-0.2775,-0.2775,-0.2774,-0.2774,-0.2772,-0.2771,-0.2771,-0.2768,-0.2767,-0.2765,-0.2768,-0.2759,-0.2759,-0.2759,-0.2757,-0.2757,-0.2757,0,0,0,0,0,-0.2785,-0.2781,-0.2782,-0.2781,-0.2776,-0.2773,-0.2773,-0.2772,-0.2774,-0.2772,-0.2771,-0.2772,-0.2766,-0.2767,-0.2766,-0.2765,-0.2759,-0.2759,-0.2759,-0.2757,-0.2757,-0.2757,0,0,0,0,0,0,-0.2782,-0.2781,-0.2781,-0.2777,-0.2775,-0.2774,-0.2771,-0.2772,-0.277,-0.277,-0.277,-0.2769,-0.2766,-0.2765,-0.2766,-0.2761,-0.2763,-0.2762,-0.2762,-0.2762,-0.2761,-0.2762,-0.2767,0,0,0,0,0,-0.2782,-0.2779,-0.2778,-0.2774,-0.2773,-0.2773,-0.2771,-0.2771,-0.277,-0.2769,-0.2768,-0.2766,-0.2764,-0.2763,-0.2761,-0.2757,-0.2757,-0.2756,-0.2756,-0.2755,-0.2755,-0.2754,-0.2754,-0.2758,-0.2758,-0.2758,0,0,-0.2779,-0.2778,-0.2777,-0.2774,-0.2772,-0.277,-0.2772,-0.2769,-0.2768,-0.2768,-0.2766,-0.2765,-0.2763,-0.276,-0.2759,-0.2759,-0.2754,-0.2755,-0.2755,-0.2755,-0.2754,-0.2753,-0.2753,-0.2758,-0.2758,-0.2758,0,0,-0.2774,-0.2773,-0.277,-0.2769,-0.2768,-0.2767,-0.2767,-0.2765,-0.2765,-0.2762,-0.2763,-0.2761,-0.2758,-0.2757,-0.2756,-0.2752,-0.2753,-0.2752,-0.275,-0.2749,-0.2749,-0.2748,-0.2748,-0.2747,-0.2751,-0.2751,-0.2751,0,-0.2772,-0.2768,-0.2769,-0.2766,-0.2765,-0.2766,-0.2764,-0.2763,-0.2761,-0.276,-0.2761,-0.2757,-0.2756,-0.2753,-0.2753,-0.2752,-0.2751,-0.2752,-0.2749,-0.2748,-0.2748,-0.2748,-0.2747,-0.2751,-0.2751,-0.2751,-0.2751,0,-0.2766,-0.2764,-0.2762,-0.276,-0.2759,-0.2756,-0.2756,-0.2755,-0.2756,-0.2756,-0.2753,-0.2752,-0.2751,-0.275,-0.275,-0.2748,-0.2748,-0.2749,-0.275,-0.2748,-0.2747,-0.2747,-0.2751,-0.2751,-0.2751,-0.2751,0,0,-0.2758,-0.2758,-0.2757,-0.2757,-0.2756,-0.2754,-0.2752,-0.2751,-0.275,-0.2749,-0.2748,-0.2746,-0.2747,-0.2746,-0.2746,-0.2745,-0.2743,-0.2746,-0.2746,-0.2746,-0.2741,-0.2741,-0.274,-0.2744,-0.2744,-0.2744,-0.2742,0,-0.2753,-0.275,-0.2751,-0.2747,-0.2746,-0.2748,-0.2746,-0.2746,-0.2746,-0.2745,-0.2745,-0.2743,-0.2745,-0.2744,-0.2743,-0.2744,-0.2742,-0.2744,-0.2743,-0.2743,-0.2743,-0.274,-0.2739,-0.2737,-0.2741,-0.2741,-0.2741,0,-0.2747,-0.2746,-0.2743,-0.2743,-0.2743,-0.2741,-0.2741,-0.274,-0.274,-0.274,-0.274,-0.274,-0.2739,-0.2741,-0.2739,-0.274,-0.274,-0.274,-0.274,-0.274,-0.2742,-0.274,-0.2736,-0.2736,-0.2741,-0.2741,-0.2741,0,-0.2742,-0.2741,-0.2739,-0.2738,-0.2739,-0.2738,-0.2738,-0.2738,-0.2738,-0.2737,-0.2737,-0.2737,-0.2736,-0.2736,-0.2737,-0.2738,-0.2736,-0.2737,-0.2737,-0.2737,-0.2736,-0.2736,-0.2732,-0.2735,-0.2735,-0.2735,-0.2735,0,-0.2737,-0.2735,-0.2737,-0.2736,-0.2734,-0.2735,-0.2733,-0.2734,-0.2734,-0.2733,-0.2735,-0.2734,-0.2735,-0.2735,-0.2736,-0.2735,-0.2735,-0.2735,-0.2735,-0.2735,-0.2735,-0.2735,-0.2735,-0.2735,-0.2735,-0.2735,-0.2735,0,-0.2731,-0.2732,-0.2731,-0.2731,-0.2732,-0.273,-0.2731,-0.273,-0.2731,-0.273,-0.273,-0.2731,-0.2731,-0.2732,-0.2732,-0.2733,-0.2732,-0.2732,-0.2732,-0.2732,-0.2731,-0.2732,-0.2728,-0.2728,-0.2731,-0.2731,-0.2731,0,-0.2728,-0.2727,-0.2728,-0.2727,-0.2727,-0.2727,-0.2727,-0.2728,-0.2728,-0.2729,-0.2728,-0.2728,-0.2728,-0.2728,-0.2729,-0.2729,-0.273,-0.2729,-0.273,-0.273,-0.273,-0.2731,-0.2731,-0.2728,-0.2728,-0.2728,-0.2728,0,-0.2722,-0.2723,-0.2722,-0.2723,-0.2722,-0.2723,-0.2723,-0.2723,-0.2725,-0.2724,-0.2725,-0.2725,-0.2725,-0.2725,-0.2726,-0.2727,-0.2728,-0.2728,-0.2728,-0.2727,-0.2727,-0.2728,-0.2731,-0.2728,-0.2728,-0.2728,-0.2728,-0.2728,-0.2717,-0.2717,-0.2717,-0.2717,-0.2718,-0.2719,-0.2718,-0.2719,-0.2719,-0.272,-0.2721,-0.2721,-0.2722,-0.2724,-0.2724,-0.2725,-0.2725,-0.2725,-0.2725,-0.2725,-0.2725,-0.2728,-0.2725,-0.2725,-0.2725,-0.2725,-0.2725,0,-0.2711,-0.2712,-0.2712,-0.2713,-0.2714,-0.2715,-0.2716,-0.2716,-0.2716,-0.2717,-0.2718,-0.2718,-0.2719,-0.272,-0.2721,-0.2722,-0.2722,-0.2722,-0.2722,-0.2722,-0.2724,-0.2724,-0.2721,-0.2721,-0.2721,-0.2721,-0.2721,-0.2721,-0.2708,-0.2708,-0.2709,-0.2709,-0.271,-0.271,-0.2711,-0.2712,-0.2712,-0.2713,-0.2714,-0.2715,-0.2717,-0.2718,-0.2719,-0.2719,-0.272,-0.2719,-0.272,-0.2721,-0.2722,-0.2722,-0.2722,-0.2719,-0.2719,-0.2718,-0.2718,-0.2718]}]]